• Join FlightAware (Why Join?)
  • Login
  • US Flag 
06:03AM EDT


 

Airport Tracker/Info


-or-


 

Live Flight TrackerFlight Track Log ✈ EJA588P ✈ 13-Jul-2013 ✈ KRPD - KFCM

Flight Track Log - Related Links

Times and Time Zones

All times are in EDT time to prevent confusion due to time zone crossing. See the EJA588P flight status page for this flight to view local times or setup timezone preferences in your user account.

Time Position Orientation Groundspeed Altitude Reporting Facility
EDT Latitude Longitude Course Direction KTS MPH feet Rate Location/Type
04:56PM 45.3672 -91.8722 236° Southwest 174 200 6,100  Level Minneapolis Center
04:57PM 45.3575 -91.9519 260° West 187 215 6,100 -60 Level Minneapolis Center
04:58PM 45.3453 -92.0464 260° West 235 270 6,000 -60 Descending Minneapolis Center
04:59PM 45.3317 -92.1481 259° West 261 300 6,000  Level Minneapolis Center
05:00PM 45.3133 -92.2717 258° West 266 306 6,000  Level Minneapolis Center
05:01PM 45.1862 -92.2385 236° Southwest  Level FlightAware Approximate
05:01PM 45.2825 -92.3647 245° Southwest 262 302 6,000  Level Minneapolis Center
05:02PM 45.2458 -92.4517 239° Southwest 257 296 6,000  Level Minneapolis Center
05:03PM 45.2100 -92.5369 239° Southwest 253 291 6,000  Level Minneapolis Center
05:04PM 45.1756 -92.6219 240° Southwest 250 288 6,000  Level Minneapolis Center
05:05PM 45.1403 -92.7069 240° Southwest 250 288 6,000  Level Minneapolis Center
05:06PM 45.0989 -92.8083 240° Southwest 249 287 6,000  Level Minneapolis Center
05:07PM 45.0700 -92.8783 240° Southwest 207 238 6,000 -240 Level Minneapolis Center
05:08PM 45.0453 -92.9375 239° Southwest 216 249 5,600 -840 Descending Minneapolis Center
05:09PM 45.0031 -93.0397 240° Southwest 251 289 4,300 -780 Descending Minneapolis Center
05:10PM 44.9697 -93.1200 240° Southwest 241 277 4,000 -180 Descending Minneapolis Center
05:11PM 44.9331 -93.2069 239° Southwest 215 247 4,000 -180 Level Minneapolis Center
05:12PM 44.9017 -93.2814 239° Southwest 224 258 3,600 -480 Descending Minneapolis Center
05:13PM 44.8692 -93.3603 240° Southwest 195 224 3,000 -540 Descending Minneapolis Center
05:14PM 44.8583 -93.4269 257° West 183 211 2,500 -300 Descending Minneapolis Center
05:15PM 44.8717 -93.5150 282° West 194 223 2,500 -300 Level Minneapolis Center
05:16PM 44.8433 -93.5428 215° Southwest 127 146 2,000 -540 Descending Minneapolis Center
05:18PM 44.8333 -93.4997 108° East 120 138 1,400 -540 Descending Minneapolis Center